Location: Bermeries
(50.2863°N, 3.7551°E)
Time: 10:25:51
(UTC+00:00)

Cosmos 1908 Rocket - Pass Details

Date: 23 May 2024
Orbit: 602 x 628 km, 82.5° (Epoch: 14 June)

Event Time Altitude Azimuth Distance (km) Brightness Sun altitude
Rises 01:50:47 0° 342° (NNW) 2,923 7.7 -13.6°
Reaches altitude 10° 01:53:11 10° 333° (NNW) 2,007 6.6 -13.4°
Maximum altitude 01:57:08 32° 270° (W) 1,069 4.5 -13.0°
Enters shadow 01:59:28 20° 221° (SW) 1,461 4.8 -12.8°
